Regional Weather Roundup
Issued by NWS

Home | Current Version | Previous Version | Graphics & Text | Print | Product List | Glossary On
Versions: 1 2 3 4 5 6 7 8 9 10 11 12 13 14 15 16 17 18 19 20 21 22 23 24 25 26 27 28 29 30 31 32 33 34 35 36 37 38 39 40 41 42 43 44 45 46 47 48 49 50
660
ASUS45 KBOU 201907
RWRCO

WEATHER ROUNDUP FOR COLORADO
NATIONAL WEATHER SERVICE DENVER/BOULDER CO
1200 PM MST FRI JAN 20 2017

NOTE: "FAIR" INDICATES FEW OR NO CLOUDS BELOW 12000 FEET WITH NO
SIGNIFICANT WEATHER AND/OR OBSTRUCTIONS TO VISIBILITY.

COZ001>005-013-030-031-202000-
...NORTHWEST COLORADO...

CITY           SKY/WX    TMP DP  RH WIND       PRES   REMARKS
CRAIG          FLURRIES  28  24  85 W6        29.56F WCI  22
HAYDEN         CLOUDY    28  21  74 W6        29.55F WCI  22
MEEKER         FLURRIES  27  24  89 NE5       29.55F WCI  22
MOUNT WERNER   NOT AVBL
STEAMBOAT SPGS CLOUDY    28  24  84 S5        29.53F WCI  23
WALDEN           N/A     25  19  80 CALM      29.49F
$$

COZ006>008-011-202000-
...WEST CENTRAL VALLEYS...

CITY           SKY/WX    TMP DP  RH WIND       PRES   REMARKS
GRAND JUNCTION CLOUDY    34  33  96 N9        29.60F WCI  27
MONTROSE       CLOUDY    37  27  67 NE5       29.61F
EAGLE          PTSUNNY   36  27  69 CALM      29.55F
RIFLE          CLOUDY    36  31  82 W18       29.55F
DELTA          CLOUDY    37  35  94 NE7       29.60F
NUCLA          CLOUDY    34  28  80 W7        29.67F WCI  28
$$

COZ017>023-064>068-202000-
...SOUTHWEST COLORADO...

CITY           SKY/WX    TMP DP  RH WIND       PRES   REMARKS
DURANGO        CLOUDY    30  24  78 SW10      29.67F WCI  21
CORTEZ         CLOUDY    35  29  78 S7        29.67F WCI  29
PAGOSA SPRINGS LGT SNOW  28  26  91 S9        29.66F WCI  19
TELLURIDE      CLOUDY    27  15  59 SE3       29.61F
WOLF CREEK PAS CLOUDY    10  10 100 S22G33    29.59F WCI  -9
$$

COZ009-010-012-014-032>034-037-058>063-202000-
...CENTRAL COLORADO...

CITY           SKY/WX    TMP DP  RH WIND       PRES   REMARKS
ASPEN          PTSUNNY   31  24  75 N8        29.51F WCI  23
BUENA VISTA    FAIR      33  14  46 W24G32    29.46F WCI  20
COPPER MTN     LGT SNOW  19  14  79 MISG      29.47F VSB 3/4
BERTHOUD PASS  NOT AVBL
COTTONWOOD PAS FAIR      30  10  43 SW24G32   29.45F WCI  16
GUNNISON       PTSUNNY   19  13  77 E6        29.57F WCI  11
KREMMLING      LGT SNOW  28  19  69 CALM      29.54F
LEADVILLE      CLOUDY    23  13  65 N10G17    29.47F WCI  12
MONARCH PASS   CLOUDY    12   9  85 W22       29.57R WCI  -7
SALIDA         FAIR      37  17  44 SW22G30   29.55F
SUNLIGHT       SNOW      18  16  93 MISG      29.55F VSB 1/4
WILKERSON PASS CLOUDY    19  18  93 W5        29.46F WCI  13
$$

COZ069>075-202000-
...SAN LUIS VALLEY/SANGRE DE CRISTO MOUNTAINS...

CITY           SKY/WX    TMP DP  RH WIND       PRES   REMARKS
ALAMOSA        FAIR      27  18  69 E8        29.56F WCI  19
LA VETA PASS   FAIR      23  16  74 NE33G52   29.45F WCI   5
SAGUACHE       LGT SNOW  27  21  80 S5        29.57F WCI  21
$$

COZ035-036-038>040-202000-
...NORTHERN COLORADO FRONT RANGE...

CITY           SKY/WX    TMP DP  RH WIND       PRES   REMARKS
DENVER INTL AP CLOUDY    39  29  67 S10       29.40F
DMNS CITY PARK   N/A     42  29  59 SE7G13    29.39F
AURORA         CLOUDY    37  30  74 S7        29.41F
FRONT RANGE AP CLOUDY    39  32  75 S6        29.41F
ERIE MUNI ARPT FAIR      44  30  58 S5        29.40F
BOULDER MUN AP FAIR      43  28  56 S7        29.39F
CENTENNIAL     PTSUNNY   36  29  75 SE8       29.41F
BROOMFIELD     NOT AVBL
FORT COLLINS   FAIR      45  28  53 S7        29.40F
LONGMONT       PTSUNNY   47  26  45 SW3       29.42F
$$

COZ041-046-047-076>085-087-088-202000-
...PIKES PEAK/PALMER DIVIDE AND SOUTHERN FOOTHILLS...

CITY           SKY/WX    TMP DP  RH WIND       PRES   REMARKS
COLO. SPRINGS  LGT SNOW  31  30  96 SE8       29.44F FOG     WCI  23
A. F. ACADEMY  PTSUNNY   36  30  80 VRB3      29.42F
SCHRIEVER AFB  NOT AVBL
ELLICOTT       LGT SNOW N/A N/A N/A CALM      29.43F
FALCON         LGT SNOW  32  30  92 CALM      29.45F
FORT CARSON    NOT AVBL
LIMON          LGT SNOW  32  32 100 W6        29.42F VSB 1   WCI  26
MONUMENT HILL  CLOUDY    32  28  86 CALM      29.44F
TRINIDAD       CLOUDY    40  19  43 N5        29.44F
$$

COZ042>045-048>051-090-091-202000-
...NORTHEAST COLORADO...

CITY           SKY/WX    TMP DP  RH WIND       PRES   REMARKS
GREELEY ARPT   FAIR      42  30  62 CALM      29.42F
AKRON          CLOUDY    37  30  75 W12       29.39F
BURLINGTON     CLOUDY    40  30  67 N6        29.41F
WRAY           NOT AVBL
STERLING       CLOUDY    41  34  75 W9        29.39F
HOLYOKE        FAIR      43  32  65 W9G16     29.38F
FORT MORGAN    CLOUDY    40  31  70 W3        29.41F
$$

COZ086-089-092>099-202000-
...SOUTHEAST COLORADO...

CITY           SKY/WX    TMP DP  RH WIND       PRES   REMARKS
PUEBLO         CLOUDY    40  33  76 NE9       29.44F
LA JUNTA       LGT SNOW  35  32  88 W5        29.46F FOG     WCI  31
LAMAR          CLOUDY    36  32  85 NW8       29.43F
SPRINGFIELD      N/A     49  30  48 NW20G30   29.41F
$$




USA.gov is the U.S. government's official web portal to all federal, state and local government web resources and services.